Regional Weather Roundup
Issued by NWS Sterling, VA

Home | Current Version | Previous Version | Text Only | Print | Product List | Glossary Off
Versions: 1 2 3 4 5 6 7 8 9 10 11 12 13 14 15 16 17 18 19 20 21 22 23 24 25 26 27 28 29 30 31 32 33 34 35 36 37 38 39 40 41 42 43 44 45 46 47 48 49 50

000
ASUS41 KLWX 201611
RWRLWX

REGIONAL WEATHER ROUNDUP
NATIONAL WEATHER SERVICE BALTIMORE MD/WASHINGTON DC
1200 PM EDT SUN AUG 20 2017

Note: "FAIR" indicates few or no clouds below 12,000 feet
with no significant weather and/or obstructions to visibility.
 TC=TEMPERATURE CELSIUS

 * =Non NWS site. Station does not report precipitation (e.g. rain,
    snow, etc.), thunder, or fog.

DCZ001-MDZ009-015-VAZ040>042-051-053>054-201700-
WASHINGTON METRO

CITY           SKY/WX    TMP DP  RH WIND       PRES   REMARKS
WASHINGTON NAT SUNNY     83  63  50 NE7       30.14S
DULLES         MOSUNNY   79  60  52 N7        30.15S
ANDREWS AFB    SUNNY     80  60  50 N6        30.13S
FT BELVOIR     SUNNY     82  63  51 NW9       30.13S
QUANTICO       SUNNY     81  68  64 E6        30.14S
COLLEGE PARK*  SUNNY     79  59  49 CALM      30.14R
LEESBURG*      SUNNY     79  63  57 CALM      30.16F
MANASSAS*      SUNNY     80  64  58 NE5       30.15S
GAITHERSBURG*  SUNNY     79  62  56 VRB3      30.17R

$$

MDZ006>007-011-014-201700-
BALTIMORE METRO

CITY           SKY/WX    TMP DP  RH WIND       PRES   REMARKS
BWI AIRPORT    SUNNY     80  62  54 VRB3      30.13S
MD SCIENCE CTR   N/A     80  60  50 MISG      30.13F
MARTIN STATE   SUNNY     79  64  61 W6        30.15R
ANNAPOLIS      SUNNY     81  61  50 NW8       30.12S
FORT MEADE*    SUNNY     79  61  53 N5        30.16S

$$

MDZ012-015-019>023-201700-
MARYLAND EASTERN SHORE

CITY           SKY/WX    TMP DP  RH WIND       PRES   REMARKS
OCEAN CITY     SUNNY     80  71  74 E8        30.11S
SALISBURY      SUNNY     83  66  56 N6        30.11R
BAY BRIDGE AP* SUNNY     77  63  61 N5        30.14R
CAMBRIDGE*     SUNNY     81  63  54 N9        30.12R

$$

MDZ017>025-201700-
SOUTHERN MARYLAND

CITY           SKY/WX    TMP DP  RH WIND       PRES   REMARKS
PATUXENT RIVER MOSUNNY   81  66  60 N8        30.13R
ST INIGOES     SUNNY     83  69  62 VRB5      30.12R
LEONARDTOWN*   SUNNY     79  63  57 N3        30.15R

$$

MDZ003>005-201700-
NORTH CENTRAL MARYLAND

CITY           SKY/WX    TMP DP  RH WIND       PRES   REMARKS
FREDERICK*     SUNNY     81  63  54 CALM      30.18S
HAGERSTOWN APT SUNNY     79  61  53 NW5       30.16S
WESTMINSTER*   SUNNY     77  61  57 N6        30.16S

$$

MDZ501>502-201700-
WESTERN MARYLAND

CITY           SKY/WX    TMP DP  RH WIND       PRES   REMARKS
OAKLAND*       SUNNY     70  59  68 W3        30.22R
CUMBERLAND*    SUNNY     77  61  57 SW5       30.22R

$$

VAZ025>031-201700-
SHENANDOAH VALLEY

CITY           SKY/WX    TMP DP  RH WIND       PRES   REMARKS
WINCHESTER*    SUNNY     77  59  53 CALM      30.17S
FRONT ROYAL*   SUNNY     77  63  61 CALM      30.16S
LURAY*         SUNNY     81  63  54 E3        30.17R
NEW MARKET*    SUNNY     80  63  56 NE3       30.15S
STAUNTON*      SUNNY     80  66  62 CALM      30.19S
WAYNESBORO*    SUNNY     81  65  59 E5        30.18S

$$

WVZ021-048>050-054>055-201700-
EASTERN WEST VIRGINIA PANHANDLE

CITY           SKY/WX    TMP DP  RH WIND       PRES   REMARKS
MARTINSBURG    SUNNY     79  59  50 NE5       30.16S
PETERSBURG*    SUNNY     80  68  65 CALM      30.17S

$$

VAZ036>039-050-201700-
CENTRAL FOOTHILLS

CITY           SKY/WX    TMP DP  RH WIND       PRES   REMARKS
CHARLOTTESVILL SUNNY     81  64  56 CALM      30.16S
CULPEPER*      SUNNY     81  66  61 N5        30.16S
ORANGE*        SUNNY     79  64  61 CALM      30.15S
GORDONSVILLE*  SUNNY     80  67  64 NE5       30.15S
WARRENTON*     SUNNY     82  61  50 NE5       30.15S

$$

VAZ055>057-201700-
NORTH AND CENTRAL PIEDMONT

CITY           SKY/WX    TMP DP  RH WIND       PRES   REMARKS
FREDERICKSBRG* SUNNY     82  66  59 CALM      30.13S
STAFFORD*      SUNNY     81  65  58 CALM      30.18S

$$

NCZ024-NYZ072-PAZ021-071-VAZ022-071-201700-
OTHER REGIONAL OBSERVATIONS

CITY           SKY/WX    TMP DP  RH WIND       PRES   REMARKS
NEW YORK CITY  SUNNY     78  59  51 VRB6      30.09R
PHILADELPHIA   MOSUNNY   80  59  48 N6        30.11R
PITTSBURGH     MOSUNNY   74  61  63 SE7       30.17S
ROANOKE        MOSUNNY   86  65  49 CALM      30.18S
RICHMOND       MOSUNNY   84  68  58 E6        30.13R
RALEIGH        MOSUNNY   90  67  46 VRB3      30.13R HX  93

$$

ANZ530>537-201700-
MARINE OBSERVATIONS

STATION/POSITION TIME  TEMP    WIND        PRES
                       AIR SEA DIR/SP/G
                 (UTC) (F)     (DEG/KT/KT) (MB)
THOMAS PT LIGHT  1600   76 80   40/  7/  8   N/A
BALT KEY BRIDGE  1548   77     290/  5/  5 1020.3R
COVE POINT       1548   77     350/ 10/ 14 1020.9R
LEWISETTA        1548   80 83   30/  4/  7 1020.1R
SOLOMONS ISLAND  1548   78 82  330/  7/ 11   N/A
PINEY POINT      1548          360/  5/  6   N/A

$$




USA.gov is the U.S. government's official web portal to all federal, state and local government web resources and services.